This is the latest recevied weather packets stored in our database for station/object KD4MBW. If no packets are shown the sender has not sent any weather packets the latest 10 day(s).
| Time | Temp. | Humidity | Pressure | Rain* | Wind** | Luminosity | Snow |
|---|---|---|---|---|---|---|---|
| 1777666164 | 20° C | 96% | 1011.6 hPa | 3.05 mm | - | 36 W/m² | - |
| 1777665861 | 20° C | 96% | 1011.4 hPa | 3.05 mm | - | 42 W/m² | - |
| 1777665558 | 20° C | 95% | 1011.6 hPa | 4.83 mm | - | 62 W/m² | - |
| 1777665255 | 20.56° C | 94% | 1011.5 hPa | 4.83 mm | - | 56 W/m² | - |
| 1777664950 | 20.56° C | 92% | 1011.8 hPa | 3.05 mm | - | 32 W/m² | - |
| 1777664646 | 21.11° C | 89% | 1012 hPa | 3.05 mm | - | 21 W/m² | - |
| 1777664342 | 21.67° C | 87% | 1011.5 hPa | 1.78 mm | - | 54 W/m² | - |
| 1777664041 | 21.67° C | 88% | 1011.7 hPa | 0 mm | - | 45 W/m² | - |
| 1777663738 | 21.67° C | 87% | 1011.8 hPa | 0 mm | - | 62 W/m² | - |
| 1777663435 | 22.22° C | 86% | 1012.3 hPa | 0 mm | - | 71 W/m² | - |
| 1777663132 | 22.22° C | 87% | 1012.2 hPa | 0 mm | - | 113 W/m² | - |
| 1777662830 | 22.22° C | 86% | 1012.3 hPa | 0 mm | - | 135 W/m² | - |
| 1777662527 | 22.22° C | 87% | 1012.2 hPa | 0 mm | - | 180 W/m² | - |
| 1777662222 | 22.22° C | 89% | 1012.1 hPa | 0 mm | - | 213 W/m² | - |
| 1777661917 | 21.67° C | 89% | 1012.1 hPa | 0 mm | - | 274 W/m² | - |
| 1777661614 | 21.67° C | 89% | 1012.3 hPa | 0 mm | - | 158 W/m² | - |
| 1777661310 | 21.67° C | 88% | 1012.3 hPa | 0 mm | - | 102 W/m² | - |
| 1777661006 | 22.22° C | 87% | 1012.6 hPa | 0 mm | - | 79 W/m² | - |
| 1777660701 | 22.78° C | 87% | 1012.5 hPa | 0 mm | - | 73 W/m² | - |
| 1777660399 | 22.78° C | 87% | 1012.4 hPa | 0 mm | - | 72 W/m² | - |
| 1777660095 | 23.33° C | 85% | 1012.6 hPa | 0 mm | - | 87 W/m² | - |
| 1777659792 | 23.33° C | 86% | 1012.5 hPa | 0 mm | - | 79 W/m² | - |
| 1777659489 | 23.33° C | 84% | 1012.2 hPa | 0 mm | - | 116 W/m² | - |
| 1777659186 | 23.89° C | 85% | 1012.2 hPa | 0 mm | - | 133 W/m² | - |
| 1777658883 | 23.89° C | 84% | 1012.2 hPa | 0 mm | - | 332 W/m² | - |
* Rain latest hour (hover to see other rain measurements)
** Current wind speed in m/s (hover to see current wind gust speed)